When you browse on this site, cookies collect data to enhance your experience and personalize the content and advertising you see.
Visit our Privacy Policy to learn more. By continuing to use the site, you agree to this use of cookies and data.

Previsão horária em Zagarya

Hoje, 12 Agosto, Quarta-feira

Tempo Temperatura Precipitação Vento Pressão Humidade
00:00 +9°C° 0 mm 2 m/s 743 mmHg 86%
01:00 +9°C° 0 mm 1 m/s 743 mmHg 89%
02:00 +9°C° 0 mm 1 m/s 744 mmHg 90%
03:00 +9°C° 0 mm 1 m/s 744 mmHg 92%
04:00 +8°C° 0 mm 1 m/s 744 mmHg 95%
05:00 +10°C° 0 mm 1 m/s 744 mmHg 90%
06:00 +10°C° 0 mm 2 m/s 744 mmHg 85%
07:00 +12°C° 0 mm 2 m/s 744 mmHg 80%
08:00 +13°C° 0 mm 3 m/s 744 mmHg 72%
09:00 +14°C° 0 mm 3 m/s 744 mmHg 65%
10:00 +17°C° 0 mm 3 m/s 744 mmHg 57%
11:00 +17°C° 0 mm 3 m/s 744 mmHg 54%
12:00 +18°C° 0 mm 3 m/s 744 mmHg 52%
13:00 +19°C° 0 mm 3 m/s 744 mmHg 50%
14:00 +18°C° 0 mm 3 m/s 744 mmHg 50%
15:00 +18°C° 0 mm 3 m/s 744 mmHg 51%
16:00 +18°C° 0 mm 3 m/s 745 mmHg 51%
17:00 +17°C° 0 mm 3 m/s 745 mmHg 56%
18:00 +16°C° 0 mm 3 m/s 745 mmHg 62%
19:00 +15°C° 0 mm 2 m/s 745 mmHg 68%
20:00 +13°C° 0 mm 2 m/s 745 mmHg 72%
21:00 +10°C° 0 mm 2 m/s 745 mmHg 77%
22:00 +9°C° 0 mm 1 m/s 746 mmHg 82%
23:00 +9°C° 0 mm 1 m/s 746 mmHg 83%

Amanhã, 13 Agosto, Quinta-feira

Tempo Temperatura Precipitação Vento Pressão Humidade
00:00 +8°C° 0 mm 1 m/s 746 mmHg 84%
01:00 +7°C° 0 mm 1 m/s 746 mmHg 85%
02:00 +7°C° 0 mm 1 m/s 746 mmHg 86%
03:00 +6°C° 0 mm 1 m/s 746 mmHg 87%
04:00 +6°C° 0 mm 1 m/s 747 mmHg 88%
05:00 +7°C° 0 mm 1 m/s 747 mmHg 83%
06:00 +8°C° 0 mm 1 m/s 747 mmHg 77%
07:00 +8°C° 0 mm 2 m/s 747 mmHg 72%
08:00 +10°C° 0 mm 2 m/s 747 mmHg 65%
09:00 +13°C° 0 mm 2 m/s 746 mmHg 59%
10:00 +14°C° 0 mm 2 m/s 746 mmHg 52%
11:00 +15°C° 0 mm 2 m/s 746 mmHg 49%
12:00 +16°C° 0 mm 2 m/s 746 mmHg 46%
13:00 +17°C° 0 mm 2 m/s 746 mmHg 43%
14:00 +18°C° 0 mm 2 m/s 745 mmHg 44%
15:00 +18°C° 0 mm 2 m/s 745 mmHg 44%
16:00 +18°C° 0 mm 2 m/s 745 mmHg 45%
17:00 +18°C° 0 mm 1 m/s 745 mmHg 53%
18:00 +15°C° 0 mm 1 m/s 745 mmHg 61%
19:00 +14°C° 0 mm 1 m/s 744 mmHg 69%
20:00 +13°C° 0 mm 1 m/s 745 mmHg 73%
21:00 +11°C° 0 mm 1 m/s 745 mmHg 77%
22:00 +10°C° 0 mm 1 m/s 745 mmHg 81%
23:00 +9°C° 0 mm 1 m/s 745 mmHg 82%

Depois de amanhã, 14 Agosto, Sexta-feira

Tempo Temperatura Precipitação Vento Pressão Humidade
00:00 +9°C° 0 mm 1 m/s 745 mmHg 84%
01:00 +7°C° 0 mm 2 m/s 745 mmHg 85%
02:00 +7°C° 0 mm 2 m/s 745 mmHg 87%
03:00 +7°C° 0 mm 2 m/s 745 mmHg 89%
04:00 +7°C° 0 mm 2 m/s 745 mmHg 91%
05:00 +8°C° 0 mm 2 m/s 744 mmHg 87%
06:00 +9°C° 0 mm 2 m/s 744 mmHg 83%
07:00 +10°C° 0 mm 3 m/s 744 mmHg 79%
08:00 +12°C° 0 mm 3 m/s 744 mmHg 74%
09:00 +14°C° 0 mm 3 m/s 744 mmHg 69%
10:00 +17°C° 0 mm 3 m/s 744 mmHg 65%
11:00 +18°C° 0 mm 4 m/s 743 mmHg 63%
12:00 +19°C° 0 mm 4 m/s 743 mmHg 61%
13:00 +19°C° 0 mm 4 m/s 743 mmHg 59%
14:00 +19°C° 0.1 mm 4 m/s 743 mmHg 60%
15:00 +19°C° 0.1 mm 4 m/s 743 mmHg 62%
16:00 +19°C° 0.1 mm 4 m/s 743 mmHg 63%
17:00 +18°C° 0.1 mm 4 m/s 743 mmHg 68%
18:00 +17°C° 0.1 mm 3 m/s 743 mmHg 73%
19:00 +16°C° 0.1 mm 3 m/s 743 mmHg 77%
20:00 +14°C° 0 mm 3 m/s 743 mmHg 78%
21:00 +13°C° 0 mm 3 m/s 744 mmHg 79%
22:00 +13°C° 0 mm 3 m/s 744 mmHg 80%
23:00 +12°C° 0 mm 3 m/s 744 mmHg 82%

15 Agosto, Sábado

Tempo Temperatura Precipitação Vento Pressão Humidade
00:00 +12°C° 0 mm 3 m/s 744 mmHg 83%
01:00 +11°C° 0 mm 3 m/s 744 mmHg 85%
02:00 +11°C° 0.1 mm 3 m/s 744 mmHg 85%
03:00 +11°C° 0.1 mm 3 m/s 744 mmHg 85%
04:00 +11°C° 0.1 mm 4 m/s 744 mmHg 86%
05:00 +11°C° 0.5 mm 4 m/s 743 mmHg 89%
06:00 +10°C° 0.5 mm 4 m/s 743 mmHg 92%
07:00 +9°C° 0.5 mm 5 m/s 743 mmHg 95%
08:00 +9°C° 0.4 mm 5 m/s 743 mmHg 95%
09:00 +9°C° 0.4 mm 5 m/s 743 mmHg 95%
10:00 +9°C° 0.4 mm 5 m/s 743 mmHg 95%
11:00 +9°C° 0.2 mm 5 m/s 743 mmHg 94%
12:00 +10°C° 0.2 mm 5 m/s 743 mmHg 94%
13:00 +10°C° 0.2 mm 5 m/s 743 mmHg 93%
14:00 +11°C° 0 mm 4 m/s 743 mmHg 92%
15:00 +11°C° 0 mm 4 m/s 743 mmHg 91%
16:00 +12°C° 0 mm 4 m/s 743 mmHg 90%
17:00 +12°C° 0 mm 4 m/s 743 mmHg 89%
18:00 +12°C° 0 mm 4 m/s 743 mmHg 88%
19:00 +12°C° 0 mm 4 m/s 744 mmHg 88%
20:00 +12°C° 0 mm 4 m/s 744 mmHg 86%
21:00 +11°C° 0 mm 3 m/s 744 mmHg 85%
22:00 +11°C° 0 mm 3 m/s 744 mmHg 84%
23:00 +11°C° 0 mm 3 m/s 744 mmHg 86%

16 Agosto, Domingo

Tempo Temperatura Precipitação Vento Pressão Humidade
00:00 +10°C° 0 mm 3 m/s 743 mmHg 88%
01:00 +10°C° 0 mm 3 m/s 743 mmHg 90%
02:00 +10°C° 0 mm 2 m/s 743 mmHg 90%
03:00 +10°C° 0 mm 2 m/s 743 mmHg 90%
04:00 +10°C° 0 mm 2 m/s 743 mmHg 89%
05:00 +10°C° 0 mm 3 m/s 743 mmHg 87%
06:00 +10°C° 0 mm 3 m/s 743 mmHg 84%
07:00 +11°C° 0 mm 3 m/s 743 mmHg 82%
08:00 +11°C° 0 mm 3 m/s 743 mmHg 79%
09:00 +12°C° 0 mm 3 m/s 743 mmHg 76%
10:00 +13°C° 0 mm 3 m/s 743 mmHg 73%
11:00 +15°C° 0 mm 2 m/s 742 mmHg 68%
12:00 +16°C° 0 mm 2 m/s 742 mmHg 63%
13:00 +18°C° 0 mm 1 m/s 742 mmHg 58%
14:00 +19°C° 0 mm 1 m/s 742 mmHg 56%
15:00 +19°C° 0 mm 1 m/s 742 mmHg 54%
16:00 +19°C° 0 mm 2 m/s 741 mmHg 52%
17:00 +18°C° 0.1 mm 1 m/s 741 mmHg 62%
18:00 +16°C° 0.1 mm 1 m/s 741 mmHg 71%
19:00 +15°C° 0.1 mm 1 m/s 741 mmHg 81%
20:00 +13°C° 0 mm 1 m/s 741 mmHg 84%
21:00 +11°C° 0 mm 0 m/s 741 mmHg 87%
22:00 +10°C° 0 mm 0 m/s 740 mmHg 90%
23:00 +9°C° 0 mm 0 m/s 740 mmHg 91%

17 Agosto, Segunda-feira

Tempo Temperatura Precipitação Vento Pressão Humidade
00:00 +9°C° 0 mm 0 m/s 740 mmHg 92%
01:00 +8°C° 0 mm 0 m/s 740 mmHg 93%
02:00 +8°C° 0 mm 0 m/s 739 mmHg 93%
03:00 +7°C° 0 mm 0 m/s 739 mmHg 94%
04:00 +8°C° 0 mm 1 m/s 739 mmHg 94%
05:00 +9°C° 0 mm 1 m/s 739 mmHg 92%
06:00 +10°C° 0 mm 1 m/s 739 mmHg 90%
07:00 +11°C° 0 mm 1 m/s 738 mmHg 88%
08:00 +13°C° 0 mm 1 m/s 738 mmHg 83%
09:00 +14°C° 0 mm 1 m/s 737 mmHg 77%
10:00 +16°C° 0 mm 2 m/s 737 mmHg 72%
11:00 +16°C° 0.3 mm 2 m/s 737 mmHg 78%
12:00 +15°C° 0.3 mm 2 m/s 736 mmHg 84%
13:00 +15°C° 0.3 mm 2 m/s 736 mmHg 90%
14:00 +14°C° 0.2 mm 2 m/s 736 mmHg 91%
15:00 +14°C° 0.2 mm 2 m/s 736 mmHg 92%
16:00 +14°C° 0.2 mm 2 m/s 736 mmHg 94%
17:00 +14°C° 0.1 mm 2 m/s 736 mmHg 94%
18:00 +14°C° 0.1 mm 2 m/s 736 mmHg 95%
19:00 +14°C° 0.1 mm 2 m/s 736 mmHg 96%
20:00 +13°C° 0 mm 2 m/s 736 mmHg 96%
21:00 +12°C° 0 mm 2 m/s 736 mmHg 96%
22:00 +10°C° 0 mm 3 m/s 735 mmHg 97%
23:00 +9°C° 0 mm 2 m/s 735 mmHg 97%
Mostrar mais